Погода Алматы

Поиск расширенной информации на нашем сайте:

Полезная информация:

Новости сайта



02.01.2020
Опубликован Долгосрочный прогноз погоды по городам России и ближнего зарубежья на январь 2020 года.
Карты: Прогноз на январь и февраль 2020 года, Сравнение прогнозируемой аномалии приземной температуры воздуха на январь 2020 года по разным моделям.




Погода Алматы - сегодня

Время (UTC), дата Ветер
(°,м/с) 
Видим.   Явления Облачность Т
(°С)
Тd
(°С)
f(%) Тe
(°С)
Pmin
(гПа)
dP
(гПа)
Po
(мм)
O2
(г/м3)
Тmin Tmax R s Состояние
почвы
12 22.10.21 тихо ()   4000 м  {ливн. осадки}  10/10 600 м кучево-дожд. 
[Cb cap]
+1.5 +0.5 93 +2  1035.6  1.5  700  280           
15 22.10.21 090 (В) н/о  слаб. ливневой дождь  10/10 600 м кучево-дожд. 
[Cb cap]
+1.8 +0.2 89 +3  1037.3  1.6  701  281    +2.4     
18 22.10.21 тихо ()   н/о  {ливн. осадки}  9/4 600 м кучево-дожд., средняя 
[Cb cap|Ac trans]
+1.6 -0.3 87 +2  1037.6  0.2  701  281    +2.4     
21 22.10.21 тихо ()   н/о    6/0 средняя 
[Ac trans]
+0.5 -0.6 92 +1  1038.2  0.2  701  282           
00 23.10.21 тихо () {02}  н/о    3/0 средняя 
[Ac trans]
+0.1 -1.9 86 1038.6  0.1  702  283           
03 23.10.21 тихо ()   20000 м    ясно 
+2.2 -1 79 +2  1038.2  0.5  702  281          мокрый или
старый снег
10-40% 
06 23.10.21 040 (СВ) 20000 м    ясно 
+7.2 -0.3 59 +8  1035.1  -1.1  701  275  -0.5    0.3     
09 23.10.21 020 (С) 10 км    ясно 
+8.6 -2.1 47 +10  1032.8  -1.7  700  273           
12 23.10.21 тихо ()   20000 м    ясно 
+7.2 -0.2 59 +7  1033.4  0.2  700  275           
15 23.10.21 тихо ()   н/о    ясно 
+3.2 +0.1 80 +3  1035.3  0.3  700  279    +9.3       
18 23.10.21 тихо ()   н/о    ясно 
+2 -0.7 82 +2  1034.4  -1.2  699  280    +9.3       
21 23.10.21 тихо ()   н/о    ясно 
+0.9 -1 87 +1  1033.6  -1.2  698  280           
00 24.10.21 тихо () {03}  н/о    ясно 
-0.1 -0.9 94 -0  1033.1  -0.8  698  281           
03 24.10.21 040 (СВ) 20000 м    ясно 
+3.4 -0.2 77 +4  1031.2  -0.4  698  277           
06 24.10.21 010 (С) 10 км    ясно 
+8.6 -0.5 53 +10  1027.2  -1.9  696  272  -0.1         
09 24.10.21 360 (С) 4000 м  дым  ясно 
+12.4 -0.6 41 +14  1023.5  -2.1  695  268           
12 24.10.21 040 (СВ) 10 км    ясно 
+9.7 -0.8 48 +11  1023.4  -1  694  270           
15 24.10.21 040 (СВ) н/о    ясно 
+5.2 +0.8 73 +6  1023.8  -1.1  693  274    +12.7       
18 24.10.21 040 (СВ) н/о    ясно 
+3.9 +0.4 78 +5  1021.7  -2.3  691  274    +12.7       
21 24.10.21 тихо ()   н/о    ясно 
+2.8 -0.3 80 +3  1019.9  -2  690  275           
00 25.10.21 тихо () {02}  н/о    ясно 
+2.6 -1.1 77 +3  1019  -0.9  689  275           
03 25.10.21 тихо ()   20000 м    ясно 
+5.5 -0.6 65 +6  1018.1  0.2  689  272  +1.6         
06 25.10.21 190 (Ю) 10 км    ясно 
+10.4 +0 48 +12  1015.9  -0.4  689  267    +9.3      замёрзшая 
09 25.10.21 260 (З) 10 км    ясно 
+13.9 +0.9 41 +15  1014.3  -0.3  689  264           
12 25.10.21 тихо ()   10 км    ясно 
+10.8 +3.1 59 +11  1017  1.5  690  267           
Время (UTC), дата Ветер
(°,м/с) 
Видим.   Явления Облачность Т
(°С)
Тd
(°С)
f(%) Тe
(°С)
Pmin
(гПа)
dP
(гПа)
Po
(мм)
O2
(г/м3)
Тmin Tmax R s Состояние
почвы

Для получения пояснительной информации подведите курсор к названию столбца.

ПОГОДА Алматы - архив

Всё, что Вы хотите узнать о погоде Алматы - удобно и подробно!

Выберите нужную дату (начиная с 1 января 2019* года) и нажмите кнопку "Найти".
Будут отображены архивные сводки погоды по пункту Алматы, начиная с указанной даты.


Отображать данные в формате CSV (для использования в таблицах Excel)


Внимание! Наш архив погоды предназначен исключительно для личного некоммерческого использования в познавательных целях. Если Вам необходимы официальные справки о состоянии погоды (для производственных, юридических, коммерческих и т.п. целей), обращайтесь в органы Росгидромета.

*Примечание: данная дата относится к архиву по метеостанциям СССР (Россия, СНГ, Балтия).
Архив по метеостанциям Зарубежной Европы и Азии (кроме Китая) хранится 10 дней, по другим регионам земного шара (Китай, Африка, Америка, Австралия, Океания) - 1 день.

Алматы - район местоположения метеостанции


Название, широта, долгота, высота метеостанции:
Алматы (город) 43.2°ш. 76.9°д. 851 м над ур. моря [Казахстан]

Дополнительная информация

В oтличие oт бoльшинства пoгoдных сайтoв мы публикуем пoдрoбную метеoинфoрмацию в детальнoм прoфессиoнальнoм фoрмате.

Характеристики температуры и влажнoсти вoздуха измеряются на высoте 2 м в тени вдали oт зданий и деревьев.
Скoрoсть ветра измеряется на высoте 10 м (на урoвне рoста челoвека скoрoсть ветра ниже в 1.5-2 раза). Если метеoстанция нахoдится в гoрoде или в лесу, тo скoрoсть ветра занижена на 2-4 м/с пo сравнению с oткрытым местoм. Скoрoсть ветра над акватoриями крупных рек и oзёр, а также на вершинах хoлмoв на 2-5 м/с выше, чем в oбычных услoвиях.
Атмoсфернoе давление в разных тoчках местнoсти мoжет значительнo oтличаться oт давления на метеoстанции, в зависимoсти oт услoвий рельефа (при пoдъёме на 10 м давление пoнижается примернo на 1 мм рт.ст.).